Location: Caracas
(10.5033°N, 66.8422°W)
Time: 12:16:28
(UTC-04:00)

Vanguard 2 - Visible Passes

Search period start: 19 February 2018 00:00
Search period end: 01 March 2018 00:00
Orbit: 553 x 2939 km, 32.9° (Epoch: 18 February)

Date Brightness Start Highest point End Pass type
(mag) Time Alt. Az. Time Alt. Az. Time Alt. Az.
20 Feb 10.3 18:56:21 10° WNW 19:02:18 17° NNW 19:06:53 10° NNE visible
21 Feb 10.3 19:16:47 10° NW 19:21:05 14° NNW 19:24:36 10° N visible
22 Feb 10.3 19:36:57 10° NNW 19:39:59 12° NNW 19:42:37 10° N visible
23 Feb 10.2 19:56:19 10° NNW 19:58:58 12° N 20:01:16 10° NNE visible
24 Feb 10.1 20:14:45 10° NNW 20:17:55 13° N 20:19:11 12° NNE visible
25 Feb 10.0 20:32:41 10° NNW 20:36:25 15° N 20:36:25 15° N visible
26 Feb 10.0 20:50:29 10° NNW 20:53:40 17° N 20:53:40 17° N visible
27 Feb 10.2 18:56:00 10° NW 19:02:36 18° N 19:07:35 10° NE visible
27 Feb 10.0 21:08:18 10° NW 21:10:58 18° NNW 21:10:58 18° NNW visible
28 Feb 10.0 19:14:42 10° NW 19:21:39 20° N 19:26:43 10° NE visible
28 Feb 10.2 21:26:11 10° NW 21:28:16 18° NW 21:28:16 18° NW visible
